Weather History for KMEH - October, 2013

Change the Weather History Date:

Wednesday, October 30, 2013

  Actual Average Record
Temperature  
Mean Temperature 32 °F -  
Max Temperature 48 °F 46 °F 68 °F (2008)
Min Temperature 18 °F 24 °F -2 °F (2002)
Degree Days  
Heating Degree Days 33    
Moisture  
Dew Point 22 °F    
Average Humidity 72    
Maximum Humidity 85    
Minimum Humidity 44    
Precipitation  
Precipitation 0.00 in - - ()
Sea Level Pressure  
Sea Level Pressure 30.13 in    
Wind  
Wind Speed 0 mph (North)    
Max Wind Speed 7 mph    
Max Gust Speed -    
Visibility 10 miles    
Events      
Averages and records for this station are not official NWS values.
T = Trace of Precipitation, MM = Missing Value Source: NWS Daily Summary

Daily Weather History Graph

Daily Weather History Graph

Search for Another Location

Airport or City:

Trip Planner

Search our weather history database for the weather conditions in past years. The results will help you decide how hot, cold, wet, or windy it might be!

Date:

Astronomy

Oct. 30, 2013 Rise Set
Actual Time 7:30 AM PDT 5:43 PM PDT
Civil Twilight 7:00 AM PDT 6:13 PM PDT
Nautical Twilight 6:25 AM PDT 6:48 PM PDT
Astronomical Twilight 5:50 AM PDT 7:23 PM PDT
Moon 3:13 AM PDT (10/30) 3:40 PM PDT (10/30)
Length of Visible Light 11h 13m
Length of Day
10h 12m
Waning Crescent, 16% of the Moon is Illuminated
Oct 30
Waning Crescent
Nov 3
New
Nov 9
First Quarter
Nov 17
Full
Nov 25
Last Quarter

Hourly Weather History & Observations

Time (PDT) Temp. Windchill Dew Point Humidity Pressure Visibility Wind Dir Wind Speed Gust Speed Precip Events Conditions
12:56 AM 23.0 °F - 19.0 °F 85% 30.05 in 10.0 mi Calm Calm - N/A   Clear
1:56 AM 21.9 °F - 18.0 °F 85% 30.06 in 10.0 mi Calm Calm - N/A   Clear
2:56 AM 21.0 °F - 17.1 °F 85% 30.06 in 10.0 mi Calm Calm - N/A   Clear
3:56 AM 19.9 °F - 16.0 °F 85% 30.08 in 10.0 mi Calm Calm - N/A   Clear
4:56 AM 19.0 °F - 15.1 °F 85% 30.08 in 10.0 mi Calm Calm - N/A   Clear
5:56 AM 19.0 °F - 14.0 °F 81% 30.10 in 10.0 mi Calm Calm - N/A   Clear
6:56 AM 18.0 °F - 14.0 °F 84% 30.12 in 10.0 mi Calm Calm - N/A   Clear
7:56 AM 18.0 °F - 14.0 °F 84% 30.14 in 10.0 mi Calm Calm - N/A   Clear
8:56 AM 23.0 °F - 18.0 °F 81% 30.14 in 10.0 mi Calm Calm - N/A   Clear
9:56 AM 32.0 °F - 27.0 °F 82% 30.13 in 10.0 mi Calm Calm - N/A   Clear
10:56 AM 42.1 °F 40.2 °F 26.1 °F 53% 30.11 in 10.0 mi Variable 3.5 mph - N/A   Clear
11:56 AM 44.1 °F - 26.1 °F 49% 30.11 in 10.0 mi Calm Calm - N/A   Clear
12:56 PM 46.0 °F 42.5 °F 26.1 °F 46% 30.10 in 10.0 mi Variable 6.9 mph - N/A   Clear
1:56 PM 46.0 °F - 26.1 °F 46% 30.11 in 10.0 mi North - - N/A   Clear
2:56 PM 46.9 °F - 27.0 °F 46% 30.10 in 10.0 mi Calm Calm - N/A   Clear
3:56 PM 46.0 °F 43.9 °F 25.0 °F 44% 30.13 in 10.0 mi Variable 4.6 mph - N/A   Clear
4:56 PM 43.0 °F - 26.1 °F 51% 30.14 in 10.0 mi Calm Calm - N/A   Partly Cloudy
5:56 PM 36.0 °F - 27.0 °F 70% 30.17 in 10.0 mi Calm Calm - N/A   Clear
6:56 PM 30.9 °F - 25.0 °F 79% 30.20 in 10.0 mi Calm Calm - N/A   Clear
7:56 PM 28.0 °F - 24.1 °F 85% 30.22 in 10.0 mi Calm Calm - N/A   Clear
8:56 PM 28.0 °F - 23.0 °F 81% 30.20 in 10.0 mi Calm Calm - N/A   Clear
9:56 PM 28.0 °F - 23.0 °F 81% 30.18 in 10.0 mi Calm Calm - N/A   Unknown
10:56 PM 27.0 °F - 23.0 °F 85% 30.16 in 10.0 mi Calm Calm - N/A   Clear
11:56 PM 27.0 °F - 23.0 °F 85% 30.15 in 10.0 mi Calm Calm - N/A   Mostly Cloudy